CAPE
0 0 0 0 0 0 0 0 0 0 0 0 0 0 0 0 0 0 0 0 0 0 0 0 158 905 1234 1576 1642 1364 1408 1592 1466 1854 1834 1271 1379 1821 1609 1605 1451 1353 994 1407
0 0 0 0 0 0 0 0 0 0 0 0 0 0 0 0 0 0 0 0 0 0 0 0 0 1 168 905 1829 1518 1029 31 107 794 723 707 716 1277 1705 1600 889 84 1285 1349
0 0 0 0 0 0 0 0 0 0 0 0 0 0 0 0 0 0 0 0 0 0 0 4 0 1 0 0 897 2251 2229 1206 835 264 1 0 0 1067 1465 1410 1438 1126 1380 1268
0 0 0 0 0 0 0 0 0 0 0 0 0 0 0 0 0 0 0 0 0 0 0 6 30 25 0 0 19 926 2403 1381 1991 2234 1004 221 156 831 1495 1236 1142 1016 1041 1036
0 0 0 0 0 0 0 0 0 0 0 0 0 0 0 0 0 0 0 0 0 0 0 0 0 9 0 0 1 105 490 1884 2401 2454 2204 1990 1827 1759 1960 1156 1390 1430 1877 2047
0 0 0 0 0 0 0 0 0 0 0 0 0 0 0 0 0 0 0 0 19 25 15 20 4 6 0 0 0 37 112 820 1550 2220 2292 2367 2238 2117 2497 1889 2040 1724 1306 822
2 0 0 0 0 0 0 0 0 0 0 0 0 0 0 0 0 0 14 29 86 122 138 156 164 127 26 9 131 103 959 1114 1518 1991 2192 2367 2630 2657 2764 2239 1973 1294 630 413
2 6 0 0 0 0 0 0 1 8 4 9 0 0 0 0 10 0 2 55 103 164 238 306 339 237 181 67 226 650 978 2066 2558 2690 2569 2668 2811 2555 2467 2111 1234 735 322 232
8 3 0 0 0 0 1 0 1 14 4 0 8 2 0 0 0 5 17 67 129 148 195 305 519 403 361 460 834 1340 1905 2349 2689 2731 2747 2763 2429 1830 1273 648 556 301 193 163
15 8 20 32 17 5 2 14 12 15 13 23 18 21 18 25 3 11 21 26 23 23 69 162 347 637 721 1106 1406 1451 1509 1732 1818 1664 1473 1257 707 469 490 506 382 317 323 220
16 10 11 31 36 52 11 7 31 45 34 27 38 35 22 24 27 35 39 12 0 0 0 0 32 195 452 694 830 737 612 514 490 484 444 511 429 456 573 545 498 461 437 360
86 29 23 23 12 17 57 86 97 41 25 40 43 68 66 100 68 77 36 26 1 0 0 0 0 0 1 14 76 224 318 304 373 357 440 512 477 470 577 429 374 320 243 213
79 46 64 37 47 10 7 38 62 90 84 27 36 76 82 114 111 84 79 59 17 14 9 17 4 0 0 0 0 0 0 0 1 26 72 111 138 104 135 157 141 130 85 54
14 78 26 3 9 50 34 11 13 26 29 39 55 127 83 19 19 54 82 101 77 32 4 11 10 27 0 0 0 0 0 0 0 0 0 0 0 0 1 0 0 0 0 0
18 23 20 21 0 0 2 16 8 1 5 3 0 0 1 0 0 0 0 0 0 0 1 4 0 8 2 0 0 0 0 0 0 0 0 0 0 0 0 0 0 0 0 0
0 26 0 8 0 0 0 0 0 0 0 0 0 0 0 0 0 0 1 0 0 0 0 0 0 0 0 0 0 0 0 0 0 0 0 0 0 0 0 0 0 0 0 0
0 1 0 0 0 0 0 0 0 0 0 0 0 5 1 0 1 0 0 0 0 0 0 0 0 0 0 0 0 0 0 0 0 0 0 0 0 0 0 0 0 0 0 0
0 0 0 0 0 0 0 0 0 0 0 10 11 3 2 0 0 0 0 0 0 0 0 0 0 0 0 0 0 0 0 0 0 0 0 0 0 0 0 0 0 0 0 0
0 1 1 0 0 0 0 0 7 8 15 18 19 14 7 8 3 2 0 0 0 0 0 0 0 0 0 0 0 0 0 0 0 0 0 0 0 0 0 0 0 0 0 0
0 14 5 7 0 0 14 0 4 12 6 9 5 12 9 3 12 2 0 0 0 0 0 0 0 0 0 0 0 0 0 0 0 0 0 0 0 0 0 0 0 0 0 0
5 6 1 10 2 8 10 20 0 10 8 13 14 10 6 8 5 0 0 0 0 0 0 0 0 0 0 0 0 0 0 0 0 0 0 0 0 0 0 0 0 0 0 0
2 1 2 21 14 3 6 5 12 14 23 16 15 12 15 4 0 0 0 1 0 0 0 0 0 0 0 0 0 0 0 0 0 0 0 0 0 0 0 0 0 0 0 0
21 21 16 4 21 24 26 21 20 10 11 17 14 12 8 3 4 1 0 0 0 0 0 0 0 0 0 0 0 0 0 0 0 0 0 0 0 0 0 0 0 1 0 0
14 31 23 14 19 14 29 31 14 16 14 8 5 0 1 0 0 0 0 0 0 0 0 0 0 0 0 0 0 0 0 0 0 0 0 0 0 0 0 1 1 0 1 1
12 15 16 18 24 12 14 4 1 5 0 0 0 0 0 0 0 0 0 0 0 0 0 0 0 0 0 0 0 0 0 0 1 1 0 1 1 1 1 0 1 2 1 2
8 10 10 14 16 14 21 6 0 0 0 0 0 0 0 0 0 1 0 0 1 1 1 0 0 0 0 0 0 0 0 1 1 2 1 2 3 3 4 4 4 1 0 0
CIN
-0 -0 -0 -0 -0 -0 -0 -0 -0 -0 -0 -0 -0 -0 -0 -0 -0 -0 -0 -0 -0 -0 -0 -32 -124 -74 -121 -73 -61 -122 -75 -61 -25 -2 -12 -37 -0 -15 -35 -14 -57 -32 -54 -28
-0 -0 -0 -0 -0 -0 -0 -0 -0 -0 -0 -0 -0 -0 -0 -0 -0 -0 -0 -0 -0 -0 -0 -0 -0 -110 -93 -46 -24 -81 -141 -117 -184 -103 -141 -79 -45 -6 -22 -45 -38 -150 -2 -93
-0 -0 -0 -0 -0 -0 -0 -0 -0 -0 -0 -0 -0 -0 -0 -0 -0 -0 -0 -0 -0 -0 -0 -4 -11 -158 -0 -0 -75 -28 -47 -70 -140 -117 -47 -0 -0 -55 -75 -127 -55 -91 -68 -92
-0 -0 -0 -0 -0 -0 -0 -0 -0 -0 -0 -0 -0 -0 -0 -0 -0 -0 -0 -0 -0 -0 -0 -38 -26 -65 -0 -0 -28 -89 -71 -34 -126 -67 -143 -199 -189 -124 -149 -172 -214 -192 -169 -139
-0 -0 -0 -0 -0 -0 -0 -0 -0 -0 -0 -0 -0 -0 -0 -0 -0 -0 -0 -0 -0 -0 -0 -0 -0 -104 -0 -2 -78 -139 -160 -157 -130 -124 -94 -117 -103 -79 -78 -186 -124 -102 -79 -31
-0 -0 -0 -0 -0 -0 -0 -0 -0 -0 -0 -0 -0 -0 -0 -0 -0 -0 -0 -0 -71 -104 -125 -143 -221 -232 -0 -0 -0 -221 -86 -214 -232 -186 -149 -78 -89 -61 -29 -77 -41 -58 -103 -143
-1 -0 -0 -0 -0 -0 -0 -0 -0 -0 -0 -0 -0 -0 -0 -0 -0 -0 -55 -54 -81 -89 -92 -118 -149 -132 -216 -203 -220 -228 -207 -240 -246 -225 -180 -130 -69 -42 -19 -70 -60 -108 -144 -183
-7 -2 -0 -0 -0 -0 -0 -0 -5 -3 -6 -5 -0 -0 -0 -0 -40 -0 -14 -79 -80 -78 -98 -127 -145 -192 -207 -237 -268 -215 -181 -115 -120 -102 -123 -94 -44 -21 -16 -74 -131 -123 -158 -168
-7 -6 -0 -0 -0 -0 -2 -0 -2 -7 -9 -0 -6 -6 -0 -0 -0 -39 -46 -47 -67 -75 -108 -103 -124 -196 -240 -268 -269 -199 -128 -69 -41 -68 -72 -46 -54 -81 -106 -186 -173 -152 -148 -122
-4 -10 -3 -3 -8 -7 -3 -8 -5 -5 -5 -6 -5 -6 -6 -15 -1 -41 -31 -42 -57 -71 -74 -103 -112 -136 -194 -208 -174 -149 -140 -116 -124 -141 -142 -146 -210 -218 -151 -127 -116 -104 -93 -100
-6 -5 -11 -3 -3 -4 -6 -5 -3 -11 -12 -9 -8 -12 -7 -12 -10 -15 -21 -39 -6 -0 -0 -0 -88 -112 -99 -109 -156 -225 -245 -249 -232 -208 -182 -136 -120 -103 -73 -70 -59 -53 -45 -43
-6 -3 -4 -4 -13 -42 -19 -3 -2 -3 -3 -3 -4 -5 -28 -24 -16 -20 -17 -28 -28 -0 -0 -0 -0 -0 -9 -168 -189 -180 -147 -131 -115 -118 -79 -61 -56 -60 -51 -51 -43 -42 -55 -52
-7 -1 -0 -1 -2 -16 -7 -2 -1 -1 -2 -2 -2 -2 -34 -33 -23 -22 -2 -2 -10 -26 -31 -25 -42 -0 -0 -0 -0 -0 -0 -0 -126 -121 -96 -113 -115 -115 -105 -91 -85 -87 -96 -93
-15 -1 -2 -22 -2 -1 -2 -1 -2 -3 -2 -5 -3 -4 -6 -8 -7 -2 -2 -3 -3 -6 -20 -21 -22 -12 -0 -0 -0 -0 -0 -0 -0 -0 -0 -0 -0 -0 -164 -0 -0 -0 -0 -0
-25 -2 -3 -1 -0 -0 -0 -1 -1 -2 -3 -3 -0 -1 -1 -0 -0 -0 -0 -0 -0 -0 -14 -19 -0 -36 -13 -0 -0 -0 -0 -0 -0 -0 -0 -0 -0 -0 -0 -0 -0 -0 -0 -0
-0 -1 -0 -3 -0 -0 -0 -0 -0 -0 -0 -0 -0 -0 -0 -0 -0 -0 -1 -0 -0 -0 -0 -0 -0 -0 -0 -0 -0 -0 -0 -0 -0 -0 -0 -0 -0 -0 -0 -0 -0 -0 -0 -0
-0 -0 -0 -0 -0 -0 -0 -0 -0 -0 -0 -0 -0 -3 -3 -1 -1 -0 -0 -0 -0 -0 -0 -0 -0 -0 -0 -0 -0 -0 -0 -0 -0 -0 -0 -0 -0 -0 -0 -0 -0 -0 -0 -0
-0 -0 -0 -0 -0 -0 -0 -0 -0 -0 -0 -2 -1 -0 -2 -1 -0 -0 -0 -0 -0 -0 -0 -0 -0 -0 -0 -0 -0 -0 -0 -0 -0 -0 -0 -0 -0 -0 -0 -0 -0 -0 -0 -0
-0 -1 -1 -0 -0 -0 -0 -0 -0 -0 -1 -1 -1 -1 -8 -10 -2 -5 -0 -0 -0 -0 -0 -0 -0 -0 -0 -0 -0 -0 -0 -0 -0 -0 -0 -0 -0 -0 -0 -0 -0 -0 -0 -0
-0 -1 -0 -0 -0 -0 -2 -1 -0 -0 -2 -1 -0 -1 -1 -1 -0 -4 -0 -0 -0 -0 -0 -0 -0 -0 -0 -0 -0 -0 -0 -0 -0 -0 -0 -0 -0 -0 -0 -0 -0 -0 -0 -0
-0 -1 -0 -1 -1 -1 -2 -1 -0 -0 -3 -0 -0 -2 -1 -1 -1 -0 -0 -0 -0 -0 -0 -0 -0 -0 -0 -0 -0 -0 -0 -0 -0 -0 -0 -0 -0 -0 -0 -0 -0 -0 -1 -1
-0 -0 -1 -1 -0 -0 -1 -0 -0 -2 -0 -0 -0 -0 -0 -3 -0 -0 -0 -0 -0 -0 -0 -0 -0 -0 -0 -0 -0 -0 -0 -0 -0 -0 -0 -0 -0 -0 -0 -0 -0 -0 -0 -0
-1 -2 -0 -2 -1 -1 -0 -2 -1 -1 -1 -0 -1 -0 -2 -1 -1 -3 -0 -0 -0 -0 -0 -0 -0 -0 -0 -0 -0 -0 -0 -0 -0 -0 -0 -1 -1 -0 -0 -0 -0 -0 -0 -0
-1 -0 -1 -0 -2 -1 -0 -1 -1 -6 -0 -1 -1 -1 -1 -0 -0 -0 -0 -0 -0 -0 -0 -0 -0 -0 -0 -0 -0 -0 -0 -0 -0 -1 -1 -1 -0 -0 -0 -1 -0 -0 -0 -0
-2 -0 -1 -1 -3 -0 -0 -0 -0 -1 -0 -0 -0 -0 -0 -0 -0 -0 -0 -0 -0 -0 -0 -0 -0 -0 -0 -0 -0 -0 -2 -2 -0 -0 -0 -0 -0 -0 -0 -0 -0 -0 -0 -0
-2 -2 -1 -0 -4 -3 -0 -1 -0 -0 -0 -0 -0 -0 -0 -0 -0 -0 -0 -1 -1 -0 -0 -0 -0 -0 -0 -0 -1 -1 -1 -0 -0 -0 -0 -0 -0 -0 -0 -0 -0 -0 -0 -0
Wind_Speed
16 20 23 22 21 25 22 24 26 26 24 26 28 27 28 25 22 22 22 25 25 26 25 22 21 21 21 20 22 23 18 19 22 24 24 18 31 29 28 21 22 23 15 21
17 26 22 20 21 24 24 26 27 27 24 21 23 28 27 21 20 20 18 18 20 23 26 25 22 23 22 25 25 24 28 21 21 26 20 14 21 22 28 27 21 14 31 14
22 21 18 18 20 23 26 26 26 28 26 29 27 29 23 17 16 18 19 17 16 22 29 28 27 25 28 31 27 26 26 18 22 18 22 27 28 30 32 28 32 25 12 20
27 17 16 18 22 23 28 22 26 29 29 27 16 27 15 17 19 15 16 17 18 19 24 30 33 27 23 29 32 34 32 31 30 29 25 23 23 24 22 22 20 19 16 16
21 19 22 22 23 23 28 23 24 27 28 28 27 24 23 18 18 12 14 17 20 20 21 24 30 33 35 31 30 25 26 20 22 19 19 19 21 17 12 10 10 8 10 12
25 14 21 24 24 21 16 20 22 25 27 31 27 26 24 18 15 14 16 20 21 23 24 25 24 22 30 32 28 25 25 28 16 14 13 13 13 12 10 9 9 9 9 10
23 22 19 17 17 16 18 20 24 23 25 30 21 22 24 17 16 18 21 22 22 22 23 24 24 24 21 26 23 20 21 18 14 13 12 12 11 10 9 7 8 8 10 11
24 23 23 19 22 23 20 22 26 24 25 24 15 23 21 15 17 19 20 20 21 22 23 24 24 23 25 27 24 19 13 11 13 15 15 14 11 10 9 7 10 12 12 13
22 22 12 18 16 18 19 22 29 33 28 28 24 15 19 15 15 17 19 19 21 21 23 23 23 20 19 19 20 20 19 17 14 13 11 13 11 10 11 11 13 14 15 16
24 19 20 9 12 17 31 23 23 27 32 32 24 23 25 14 14 16 18 19 19 20 20 20 20 19 17 16 15 13 13 13 12 11 10 10 10 9 11 11 14 15 17 19
17 24 14 12 17 17 15 25 27 30 25 28 28 23 17 16 17 17 17 17 18 18 18 17 18 17 15 13 12 12 11 11 11 10 10 11 11 12 12 13 15 18 19 20
18 20 26 22 17 20 23 25 24 23 28 28 31 26 15 16 17 18 16 17 16 16 17 17 16 16 15 14 13 13 13 13 13 13 11 13 13 15 16 16 18 20 23 25
16 20 21 21 21 22 25 23 27 25 23 25 25 21 15 16 17 17 18 16 18 18 19 19 19 19 18 16 15 14 14 15 15 14 15 15 17 19 21 24 24 26 28 29
18 22 22 21 19 17 21 24 25 28 30 31 29 23 13 17 20 22 22 22 22 23 26 25 24 21 20 18 19 18 17 17 17 18 18 20 22 25 27 29 30 31 32 34
17 20 23 24 22 20 20 18 18 26 28 31 28 29 28 30 33 34 35 33 31 29 28 29 26 24 25 24 23 23 21 21 22 23 24 26 27 28 30 32 34 36 37 38
17 20 24 30 27 28 32 30 30 29 28 30 30 33 31 29 29 29 29 30 30 29 26 24 20 18 18 20 20 23 25 24 26 26 28 30 32 34 36 38 40 41 42 42
18 19 21 27 20 25 30 25 23 25 24 26 27 25 26 27 25 25 24 24 22 19 18 19 19 19 20 20 22 25 27 28 29 31 33 34 35 37 39 40 41 43 44 45
16 16 17 21 19 25 18 18 17 18 18 17 20 21 21 21 20 20 21 19 18 17 17 18 20 19 20 22 24 27 30 32 33 35 37 38 39 41 41 42 43 45 46 47
18 18 20 22 23 26 18 16 17 19 19 17 20 18 19 20 21 19 19 20 19 19 20 19 20 21 23 25 27 30 32 35 37 39 40 40 41 43 44 45 46 47 47 47
17 18 18 17 20 22 16 16 16 17 21 15 18 19 21 21 23 18 18 19 20 21 22 22 24 26 27 29 31 35 37 38 39 40 41 41 42 43 45 46 47 47 47 45
16 16 17 16 20 21 16 14 17 20 20 17 20 22 22 23 23 24 24 24 23 24 26 26 28 30 32 34 36 39 40 41 41 42 42 43 44 46 46 46 43 41 41 40
15 15 17 17 19 23 14 15 18 19 19 21 21 20 21 23 26 27 28 29 29 30 31 33 35 36 37 38 39 41 42 42 42 44 45 46 46 44 42 40 38 36 35 37
18 17 17 15 18 16 16 19 20 19 20 21 21 23 26 29 31 30 31 32 33 35 37 37 38 40 40 38 37 42 42 43 44 44 45 44 42 39 37 34 36 35 32 33
17 16 17 18 15 18 20 20 19 19 21 21 25 28 30 33 34 36 37 37 38 38 38 39 41 42 41 38 39 40 42 43 43 44 42 40 39 38 38 30 29 27 26 27
17 15 19 20 20 20 18 18 20 20 23 25 26 29 32 34 37 38 39 39 38 38 38 40 42 43 43 42 41 40 39 38 38 37 35 31 31 32 28 12 16 20 20 23
16 18 18 20 17 19 20 20 21 25 28 29 31 32 31 35 39 40 40 40 39 37 38 39 39 38 38 36 35 34 34 32 25 25 26 25 23 18 9 7 15 17 15 16
Wind_Direction
252 257 255 259 260 268 273 272 272 277 286 290 292 297 301 307 309 302 293 283 269 254 259 264 260 255 253 259 262 251 245 247 252 254 256 275 258 260 264 267 268 269 272 274
259 258 263 265 263 266 272 271 272 279 287 294 295 298 304 307 312 315 310 299 277 253 254 263 263 261 262 263 258 250 251 249 255 260 263 289 280 283 270 273 271 295 269 290
261 272 259 257 260 264 268 270 274 276 282 287 289 293 299 316 312 318 318 318 303 262 256 263 267 267 260 270 270 260 250 254 253 268 263 270 284 278 268 267 265 278 268 277
256 265 263 253 259 264 267 273 274 276 278 279 291 287 309 309 311 321 329 330 321 289 271 268 266 270 268 260 262 260 263 259 262 262 266 258 260 263 274 278 278 274 277 282
260 264 255 258 257 264 268 276 276 274 274 276 277 284 290 307 302 319 329 322 317 315 302 291 278 270 260 264 269 271 269 266 259 253 265 263 264 268 287 270 256 259 281 283
256 275 263 260 259 267 278 278 275 274 274 270 275 274 285 293 303 313 319 315 315 309 307 306 289 283 272 272 274 272 268 263 260 260 240 238 264 264 265 255 252 264 269 279
256 262 266 269 257 262 271 273 267 269 267 271 283 277 277 301 301 304 308 308 311 310 309 308 305 287 280 273 280 277 271 262 246 238 242 249 267 257 253 238 230 245 269 277
255 260 257 260 259 261 261 264 263 269 272 278 286 281 288 299 300 302 310 314 313 313 315 315 313 301 284 276 277 282 274 266 261 252 259 261 261 263 262 260 262 264 271 278
256 258 279 270 261 257 261 264 259 269 275 273 281 294 299 303 307 309 311 315 317 320 318 318 317 315 303 289 282 279 276 275 266 262 254 255 255 260 269 269 266 271 278 281
259 267 263 282 278 270 253 273 263 264 267 269 283 285 290 303 307 311 314 318 322 324 325 328 326 324 316 303 294 292 288 285 280 274 271 270 264 265 268 272 271 279 281 284
269 256 278 281 269 270 265 262 264 269 275 275 280 291 313 310 311 314 317 321 323 325 330 333 335 334 330 327 316 308 303 297 288 288 281 277 279 279 276 281 283 283 286 289
266 269 261 267 284 273 268 268 270 271 271 277 279 282 320 315 311 314 318 321 327 325 328 334 335 335 334 333 325 314 309 306 298 294 294 285 284 284 284 287 291 292 292 293
274 271 274 277 270 271 269 272 264 270 276 275 281 295 319 321 317 316 315 320 319 317 313 316 319 318 320 323 323 321 315 309 306 304 297 294 289 287 288 290 293 294 294 295
273 267 271 282 280 280 271 270 268 267 271 275 282 291 317 315 308 308 309 308 307 307 303 301 303 304 309 311 312 314 312 310 305 300 298 296 296 293 293 294 294 295 296 295
282 281 271 267 278 285 285 286 280 274 278 279 290 292 295 299 297 295 294 296 296 297 298 297 300 300 296 297 296 302 304 305 301 299 298 297 298 297 296 296 296 296 296 296
287 283 278 266 277 277 273 277 277 281 287 289 293 293 299 304 308 306 306 303 299 296 297 302 304 308 309 308 301 301 300 301 297 296 295 297 298 298 298 297 296 296 297 298
285 281 283 274 289 288 280 285 286 288 291 295 295 306 312 311 313 313 316 318 317 315 311 310 310 308 307 306 305 301 302 294 297 296 296 298 299 298 299 299 299 299 299 299
289 285 287 284 294 280 303 308 309 305 307 310 310 314 320 322 327 330 331 331 331 328 324 320 317 316 313 310 307 304 299 295 298 296 297 299 300 300 301 301 301 301 301 300
285 282 281 280 281 290 304 309 309 309 312 315 314 321 320 324 324 321 330 331 326 324 323 323 324 319 315 310 307 304 302 300 298 297 298 300 301 301 302 302 303 303 303 302
283 283 283 290 290 292 310 318 321 322 308 327 326 324 322 323 313 324 330 321 322 318 310 319 315 312 310 308 304 299 299 299 300 301 301 302 303 303 303 304 305 305 304 304
281 283 282 289 293 299 318 322 323 309 315 329 327 325 324 321 317 311 309 312 313 312 307 311 310 307 305 302 301 296 295 295 298 300 301 301 302 303 304 306 308 309 309 309
283 286 287 289 294 296 324 322 312 322 328 327 330 332 326 319 309 307 305 305 308 307 305 305 303 301 301 300 299 296 291 296 297 296 296 298 301 305 307 309 312 314 314 314
286 289 296 299 303 318 323 319 323 326 327 328 328 322 313 305 303 307 307 306 306 305 304 303 303 300 299 302 302 296 297 298 299 299 299 300 303 307 312 315 315 317 319 319
291 300 300 308 315 318 320 323 326 329 327 326 316 312 305 301 303 304 306 307 306 306 305 304 301 295 295 300 300 299 296 295 295 290 288 295 297 294 297 321 324 327 327 327
301 306 303 303 312 320 332 335 332 329 320 316 315 311 308 307 306 307 307 308 308 306 304 299 285 281 281 288 286 286 281 280 276 277 275 266 268 274 266 337 339 338 336 334
302 303 307 313 329 327 329 333 325 316 310 309 309 309 312 309 302 293 283 288 281 273 274 273 273 272 273 271 268 272 276 273 254 253 262 260 257 250 255 336 351 350 340 338